Probability
0 0 0 0 0 0 0 0 0 0 0 0 0 0 0 0 0 0 0 0 0 0 0 0 0 0 0 0 0 0 0 0 0 0 0 0 0 0 0 0 0 0 0 0
0 0 0 0 0 0 0 0 0 0 0 0 0 0 0 0 0 0 0 0 0 0 0 0 0 0 0 0 0 0 0 0 0 0 0 0 0 0 0 0 0 0 0 0
0 0 0 0 0 0 0 0 0 0 0 0 0 0 0 0 0 0 0 0 0 0 0 0 0 0 0 0 0 0 0 0 0 0 0 0 0 0 0 0 0 0 0 0
0 0 0 0 0 0 0 0 0 0 0 0 0 0 0 0 0 0 0 0 0 0 0 0 0 0 0 0 0 0 0 0 0 0 0 0 0 0 0 0 0 0 0 0
0 0 0 0 0 0 0 0 0 0 0 0 0 0 0 0 0 0 0 0 0 0 0 0 0 0 0 0 0 0 0 0 0 0 0 0 0 0 0 0 0 0 0 0
0 0 0 0 0 0 0 0 0 0 0 0 0 0 0 0 0 0 0 0 0 3 3 0 0 0 0 0 0 0 0 0 0 0 0 0 0 0 0 0 0 0 0 0
0 0 0 0 0 0 0 0 0 0 0 0 0 0 0 0 0 0 0 0 0 3 3 3 0 0 0 0 0 0 0 0 0 0 0 0 0 0 0 0 0 0 0 0
0 0 0 0 0 0 0 0 0 0 0 0 0 0 0 0 0 0 0 0 0 3 6 3 3 0 0 0 0 0 0 0 0 0 0 0 0 0 0 0 0 0 0 0
0 0 0 0 0 0 0 0 0 0 0 0 0 0 0 0 0 0 0 0 0 13 19 6 3 3 0 0 0 0 0 0 0 0 0 0 0 0 0 0 0 0 0 0
0 0 0 0 0 0 0 0 0 0 0 0 0 0 0 0 0 0 0 0 0 0 0 3 0 3 3 0 0 0 0 0 0 0 0 0 0 0 0 0 0 0 0 0
0 0 0 0 0 0 0 0 0 0 0 0 0 0 0 0 0 0 0 0 0 0 0 0 0 0 0 0 0 0 0 0 0 0 0 0 0 0 0 0 0 0 0 0
0 0 0 0 0 0 0 0 0 0 0 0 0 0 0 0 0 0 0 0 0 0 0 0 0 0 0 0 0 0 0 0 0 0 0 0 0 0 0 0 0 0 0 0
0 0 0 0 0 0 0 0 0 0 0 0 0 0 0 0 0 0 0 0 0 0 0 0 0 0 0 0 0 0 0 0 0 0 0 0 0 0 0 0 0 0 0 0
0 0 0 0 0 0 0 0 0 0 0 0 0 0 0 0 0 0 0 0 0 0 0 0 0 0 0 3 3 0 0 0 0 0 0 0 0 0 0 0 0 0 0 0
0 0 0 0 0 0 0 0 0 0 0 0 0 0 0 0 0 0 0 0 0 0 0 0 0 0 0 0 0 0 0 0 0 0 0 0 0 0 0 0 0 0 0 0
0 0 0 0 0 0 0 0 0 0 0 0 0 0 0 0 0 0 0 0 0 0 0 0 0 0 0 0 0 0 3 3 0 0 6 6 0 0 0 0 0 0 0 0
0 0 0 0 0 0 0 0 0 0 0 0 0 0 0 0 0 0 0 0 0 0 0 0 0 0 0 0 0 0 3 3 0 0 10 10 3 0 0 0 0 0 0 0
0 0 0 0 0 0 0 0 0 0 0 0 0 0 0 0 0 0 0 0 0 0 0 0 0 0 0 0 0 0 0 0 0 0 0 0 0 0 0 0 0 0 0 0
0 0 0 0 0 0 0 0 0 0 0 0 0 0 0 0 0 0 0 0 0 0 0 0 0 0 0 0 0 0 0 0 0 0 0 0 0 0 0 0 0 0 0 0
0 0 0 0 0 0 0 0 0 0 0 0 0 0 0 0 0 0 0 0 0 0 0 0 0 0 0 0 0 0 0 0 0 0 0 0 0 0 0 0 0 0 0 0
0 0 0 0 0 0 0 0 0 0 0 0 0 0 0 0 0 0 0 0 0 0 0 0 0 0 0 0 0 0 0 0 0 0 0 0 0 0 0 0 0 0 0 0
0 0 0 0 0 0 0 0 0 0 0 0 0 0 0 0 0 0 0 0 0 0 0 0 0 0 0 0 0 0 0 0 0 0 0 0 0 0 0 0 0 0 0 0
0 0 0 0 0 0 0 0 0 0 0 0 0 0 0 0 0 0 0 0 0 0 0 0 0 0 0 0 0 0 0 0 0 0 0 0 0 0 0 0 0 0 0 0
0 0 0 0 0 0 0 0 0 0 0 0 0 0 0 0 0 0 0 0 0 0 0 0 0 0 0 0 0 0 0 0 0 0 0 0 0 0 0 0 0 0 0 0
0 0 0 0 0 0 0 0 0 0 0 0 0 0 0 0 0 0 0 0 0 0 0 0 0 0 0 0 0 0 0 0 0 0 0 0 0 0 0 0 0 0 0 0
0 0 0 0 0 0 0 0 0 0 0 0 0 0 0 0 0 0 0 0 0 0 0 0 0 0 0 0 0 0 0 0 0 0 0 0 0 0 0 0 0 0 0 0
Height
5834 5840 5842 5843 5845 5847 5850 5853 5854 5855 5853 5854 5855 5856 5857 5856 5855 5855 5855 5853 5853 5853 5852 5851 5851 5850 5848 5846 5844 5842 5841 5839 5836 5833 5831 5831 5830 5830 5828 5826 5825 5824 5827 5828
5832 5835 5836 5837 5838 5840 5842 5844 5847 5848 5847 5848 5850 5851 5851 5851 5851 5850 5850 5849 5848 5847 5847 5846 5846 5845 5843 5841 5839 5837 5835 5834 5831 5828 5827 5827 5826 5824 5823 5821 5823 5823 5825 5826
5827 5829 5829 5830 5832 5834 5835 5837 5838 5840 5841 5842 5845 5846 5845 5845 5844 5844 5845 5844 5843 5842 5842 5841 5840 5840 5839 5837 5834 5832 5829 5828 5825 5823 5822 5821 5820 5819 5818 5817 5818 5819 5819 5821
5820 5821 5823 5824 5826 5828 5830 5830 5831 5832 5834 5836 5838 5840 5841 5840 5839 5840 5840 5838 5837 5837 5837 5836 5835 5834 5832 5831 5829 5826 5823 5821 5819 5817 5816 5814 5812 5812 5812 5812 5812 5814 5815 5815
5816 5817 5819 5820 5820 5821 5824 5825 5826 5827 5828 5831 5832 5833 5835 5835 5834 5835 5834 5833 5833 5832 5832 5831 5830 5829 5826 5824 5822 5820 5817 5815 5813 5811 5810 5808 5806 5806 5806 5806 5806 5808 5809 5808
5811 5813 5815 5815 5815 5816 5818 5820 5821 5822 5823 5825 5828 5828 5828 5828 5829 5828 5828 5828 5827 5827 5826 5826 5825 5823 5820 5817 5814 5813 5811 5808 5806 5804 5803 5802 5801 5800 5800 5799 5800 5801 5801 5799
5807 5807 5808 5809 5810 5811 5812 5814 5815 5816 5817 5819 5820 5821 5823 5822 5822 5823 5823 5822 5822 5822 5821 5820 5817 5816 5814 5811 5808 5805 5803 5801 5800 5797 5797 5797 5796 5795 5794 5793 5792 5793 5793 5792
5802 5803 5802 5803 5803 5804 5805 5807 5808 5810 5811 5812 5812 5814 5816 5817 5817 5817 5816 5817 5817 5816 5815 5814 5811 5810 5808 5805 5802 5800 5798 5796 5793 5791 5791 5791 5791 5790 5789 5788 5787 5786 5786 5785
5796 5797 5796 5796 5796 5798 5799 5800 5803 5803 5803 5805 5807 5809 5811 5812 5812 5812 5812 5812 5811 5810 5810 5808 5805 5804 5802 5799 5796 5795 5792 5789 5787 5786 5786 5785 5786 5786 5785 5783 5783 5781 5781 5782
5789 5791 5792 5790 5789 5790 5793 5794 5795 5795 5795 5796 5800 5803 5804 5805 5805 5805 5806 5806 5804 5804 5804 5803 5801 5799 5796 5794 5792 5789 5786 5783 5782 5781 5781 5780 5780 5780 5780 5779 5778 5777 5777 5777
5784 5785 5787 5786 5786 5787 5789 5790 5789 5790 5791 5792 5793 5799 5800 5801 5800 5800 5800 5799 5799 5798 5797 5797 5795 5793 5789 5789 5787 5784 5780 5778 5777 5776 5775 5776 5775 5775 5775 5774 5773 5772 5772 5773
5778 5779 5780 5782 5781 5782 5784 5786 5786 5786 5785 5785 5788 5796 5794 5794 5795 5794 5793 5793 5793 5792 5791 5790 5789 5787 5784 5783 5781 5777 5774 5773 5772 5771 5770 5770 5770 5770 5770 5770 5770 5768 5767 5768
5771 5772 5773 5775 5778 5777 5776 5777 5778 5778 5779 5780 5782 5788 5788 5786 5788 5788 5786 5787 5787 5786 5785 5784 5782 5779 5777 5776 5775 5772 5769 5768 5768 5767 5767 5766 5766 5765 5765 5765 5765 5763 5763 5762
5764 5766 5767 5767 5766 5767 5767 5770 5772 5772 5772 5773 5775 5779 5782 5781 5781 5781 5780 5780 5780 5779 5778 5778 5775 5772 5771 5769 5770 5768 5766 5764 5764 5763 5762 5762 5761 5760 5759 5759 5758 5757 5758 5759
5759 5760 5761 5763 5762 5761 5762 5764 5765 5765 5765 5763 5768 5769 5774 5775 5773 5772 5772 5772 5771 5771 5771 5770 5768 5767 5766 5764 5763 5762 5761 5760 5759 5758 5756 5755 5754 5753 5752 5751 5751 5751 5751 5752
5752 5753 5754 5756 5757 5756 5758 5759 5759 5759 5759 5758 5760 5763 5765 5764 5762 5762 5763 5763 5763 5763 5763 5763 5762 5760 5759 5758 5757 5756 5755 5754 5753 5751 5749 5747 5747 5746 5745 5744 5744 5745 5744 5744
5746 5747 5748 5750 5750 5749 5751 5752 5753 5752 5749 5748 5749 5752 5749 5749 5749 5751 5754 5756 5756 5756 5757 5757 5755 5753 5752 5751 5751 5750 5748 5748 5746 5744 5741 5739 5738 5738 5737 5737 5737 5737 5737 5737
5740 5741 5742 5744 5745 5746 5746 5746 5747 5746 5745 5743 5741 5740 5741 5741 5742 5745 5747 5749 5749 5749 5750 5750 5749 5749 5748 5746 5745 5743 5742 5741 5739 5737 5734 5731 5730 5730 5730 5730 5729 5728 5728 5729
5732 5734 5735 5737 5739 5741 5741 5743 5743 5743 5742 5740 5737 5734 5734 5735 5739 5742 5742 5742 5743 5744 5745 5746 5745 5744 5743 5741 5739 5738 5736 5735 5732 5730 5726 5722 5722 5722 5721 5720 5720 5719 5719 5719
5725 5728 5729 5731 5733 5735 5737 5737 5737 5739 5738 5737 5735 5733 5732 5733 5737 5740 5740 5740 5742 5743 5743 5742 5741 5740 5738 5737 5735 5733 5731 5729 5725 5722 5718 5715 5713 5713 5713 5711 5710 5710 5710 5711
5719 5722 5724 5726 5728 5728 5730 5732 5734 5736 5736 5734 5733 5733 5731 5731 5734 5737 5738 5739 5740 5740 5739 5738 5737 5735 5734 5732 5730 5727 5725 5721 5718 5714 5711 5709 5706 5704 5702 5703 5702 5701 5701 5701
5713 5717 5719 5720 5723 5725 5725 5726 5729 5731 5731 5731 5732 5732 5732 5732 5732 5734 5736 5737 5737 5736 5735 5733 5732 5730 5729 5727 5724 5721 5718 5714 5710 5707 5704 5701 5699 5697 5695 5694 5693 5693 5692 5691
5705 5707 5710 5714 5719 5719 5720 5722 5725 5727 5729 5731 5730 5731 5733 5733 5732 5732 5733 5733 5733 5732 5731 5730 5729 5727 5726 5723 5720 5717 5713 5709 5705 5701 5699 5696 5693 5691 5689 5687 5684 5682 5680 5681
5697 5696 5699 5703 5710 5713 5717 5721 5723 5726 5728 5729 5730 5730 5732 5733 5732 5728 5731 5730 5730 5729 5728 5727 5726 5724 5722 5720 5717 5713 5709 5705 5701 5697 5694 5691 5689 5687 5685 5681 5676 5672 5670 5671
5685 5685 5689 5694 5700 5706 5712 5716 5719 5723 5726 5727 5728 5729 5731 5733 5731 5729 5729 5728 5727 5726 5725 5724 5722 5721 5718 5716 5713 5710 5706 5702 5698 5694 5692 5689 5688 5686 5682 5678 5671 5664 5661 5661
5678 5681 5686 5691 5696 5701 5706 5709 5714 5719 5724 5725 5726 5728 5729 5730 5730 5729 5727 5726 5725 5724 5723 5722 5720 5719 5717 5715 5712 5708 5704 5700 5696 5694 5691 5689 5687 5685 5681 5677 5671 5664 5659 5659
Wind_Speed
31 29 27 31 34 35 37 36 33 30 32 27 23 22 17 16 19 20 19 23 25 25 23 23 22 21 20 17 16 17 17 19 20 19 18 18 20 20 19 21 17 13 12 13
31 30 30 30 31 32 33 32 30 25 27 26 23 19 17 16 20 23 21 25 25 24 23 23 24 23 21 19 18 18 18 18 17 18 18 20 23 23 21 20 21 18 17 17
34 26 28 30 31 30 31 31 30 29 28 29 22 19 21 21 24 27 25 26 25 24 24 25 24 25 22 20 19 19 20 18 18 20 21 23 25 24 21 21 23 22 23 23
21 22 22 23 26 28 23 25 27 29 29 25 23 23 23 25 28 27 24 24 25 25 26 27 27 25 23 22 21 21 20 20 21 22 24 28 28 24 21 21 22 23 27 28
21 18 18 16 16 21 24 21 18 21 22 22 23 24 23 26 29 24 23 24 26 26 27 28 28 25 23 23 23 22 20 20 22 22 25 26 23 21 22 24 25 26 28 28
24 23 18 16 15 20 26 27 27 27 26 25 22 25 25 25 25 24 24 24 25 26 29 29 28 27 25 24 23 24 21 20 21 22 21 19 18 18 22 27 29 28 28 27
24 24 21 20 22 24 26 27 28 28 28 25 22 24 24 23 26 25 24 24 25 27 30 31 29 27 27 27 26 27 25 22 21 19 17 16 17 18 19 23 27 26 23 23
27 26 27 27 29 29 27 27 28 26 26 26 25 24 24 23 25 25 25 25 27 30 29 28 26 26 27 27 27 28 29 28 24 19 16 16 17 17 18 20 21 21 19 16
29 27 29 31 30 29 29 29 26 28 28 28 26 26 27 26 24 26 27 28 30 31 28 26 26 25 24 25 26 25 26 26 22 18 18 17 17 16 17 17 16 16 14 12
27 29 29 31 33 29 30 30 29 30 31 32 30 29 30 29 28 29 30 30 30 29 26 25 24 25 26 25 24 24 23 22 20 19 17 17 17 17 18 19 17 15 14 13
26 27 28 32 32 30 29 29 28 29 31 32 33 31 31 31 31 31 31 28 27 27 24 24 24 26 28 25 24 25 22 20 18 18 17 16 15 16 17 19 19 17 14 13
25 26 27 29 34 34 33 32 29 30 33 35 34 30 25 26 28 28 27 27 27 27 23 23 24 25 28 26 24 23 20 19 17 16 16 17 17 19 20 20 20 20 18 15
26 24 28 29 33 36 37 37 37 33 34 33 33 29 24 24 27 24 24 26 28 25 23 23 24 27 28 27 24 21 18 17 16 15 16 19 21 23 24 24 22 21 20 19
26 22 20 17 24 41 37 34 34 35 35 36 37 34 28 26 25 23 24 27 28 25 23 23 25 28 29 28 25 20 17 15 15 16 18 20 23 25 25 24 23 23 22 21
23 24 22 17 12 15 17 25 31 36 38 40 34 32 27 24 27 30 29 25 24 27 26 25 26 29 30 27 23 19 17 18 19 21 22 22 23 23 24 25 24 23 23 23
20 22 19 17 17 16 14 18 22 25 32 35 32 26 24 30 33 33 31 28 27 28 29 29 31 33 28 22 19 19 20 23 25 26 26 25 24 25 25 25 25 23 23 24
19 18 18 15 14 13 7 12 15 17 19 23 24 18 23 28 29 29 30 30 31 32 31 30 30 26 21 20 20 22 25 26 27 28 27 26 25 25 25 25 25 25 26 27
23 21 19 15 17 13 14 14 15 16 18 21 20 17 19 22 22 19 22 27 29 28 27 22 17 17 19 21 23 24 26 26 26 26 27 28 28 26 26 28 28 28 27 27
23 23 20 14 12 14 16 14 13 14 10 3 5 7 6 7 12 13 14 13 13 13 12 11 14 16 18 20 21 23 24 26 27 27 28 29 28 27 28 28 28 27 27 26
20 19 19 14 13 12 12 14 12 8 5 8 7 8 9 9 6 7 7 7 6 6 9 12 15 17 18 19 19 20 22 25 26 27 28 29 30 29 29 29 29 29 29 29
22 19 16 14 13 14 14 14 14 11 9 11 9 8 8 9 7 6 7 6 6 8 10 13 15 15 15 17 18 21 23 25 26 26 25 26 28 29 29 27 29 30 31 30
22 21 18 14 14 15 16 19 19 14 15 14 10 7 6 6 6 4 3 5 7 10 13 14 14 14 16 18 19 21 23 24 24 23 22 21 22 23 25 26 27 28 31 32
25 26 18 19 20 20 22 24 21 20 18 13 10 8 7 5 4 2 3 5 9 12 14 14 14 15 16 16 18 20 20 21 22 20 17 17 18 19 21 23 25 27 28 30
30 34 25 14 20 25 24 23 24 20 17 13 10 7 5 4 2 3 4 6 11 14 13 13 13 14 14 16 18 18 18 19 18 17 16 15 12 12 16 20 22 23 23 24
33 39 32 19 18 20 25 26 25 22 18 14 10 6 5 6 3 1 3 8 11 11 10 11 12 12 14 16 18 17 17 17 16 15 14 11 8 9 15 21 24 20 15 17
29 36 34 27 25 27 31 25 25 23 19 14 12 9 8 6 4 4 5 8 9 9 9 10 10 11 14 16 17 18 18 16 15 13 11 9 8 10 14 19 23 21 10 1
Wind_Direction
246 245 246 251 254 256 260 262 266 269 269 274 280 278 267 263 271 278 282 280 279 281 283 285 288 292 297 302 310 316 316 306 304 302 299 294 290 292 289 285 294 270 257 261
252 246 245 249 253 258 259 260 261 267 263 265 271 265 260 263 273 277 277 277 278 279 280 282 287 291 297 300 305 309 311 304 297 294 293 295 292 292 288 280 268 263 263 270
245 251 255 252 255 260 260 256 256 258 259 262 253 255 263 271 273 277 279 276 274 275 279 284 287 287 289 292 296 300 303 299 292 292 292 294 293 288 281 269 264 262 265 263
249 251 256 255 252 252 253 252 251 258 259 248 251 257 257 266 273 281 282 276 275 279 284 286 285 284 290 291 291 295 299 299 295 294 291 290 285 278 267 259 258 257 262 261
255 252 259 260 248 244 245 248 254 252 238 243 257 263 259 263 272 276 274 272 274 277 280 283 287 288 291 291 289 289 292 290 290 290 291 290 282 268 258 257 258 260 265 265
252 256 255 249 241 243 249 250 244 241 244 257 268 267 266 270 269 270 271 268 267 272 275 280 289 291 292 293 293 291 288 283 287 290 287 282 278 271 265 265 267 270 272 262
240 245 239 238 244 241 237 239 243 247 249 258 260 261 267 273 275 275 271 268 275 280 280 285 293 293 296 299 298 295 290 286 283 280 277 277 277 278 276 272 273 274 275 263
240 239 240 234 239 235 232 237 244 251 252 254 256 260 262 263 266 272 275 277 280 281 286 292 296 297 301 303 302 297 294 292 285 276 275 280 283 282 287 287 283 279 283 279
243 237 238 237 236 237 240 244 249 253 254 255 254 259 263 266 268 270 273 277 282 287 292 296 298 299 303 306 310 305 296 292 282 276 278 280 280 279 284 291 295 293 289 281
253 247 240 239 235 232 236 238 241 245 249 251 251 256 261 265 268 272 276 278 282 288 291 293 296 299 301 298 302 309 299 293 281 276 277 279 279 276 278 286 290 294 294 283
259 253 243 243 241 240 243 246 247 250 253 258 261 263 266 267 269 271 274 278 282 286 291 290 293 298 296 297 295 307 298 288 280 274 271 272 279 285 287 291 295 297 296 295
261 259 251 242 244 246 246 248 255 258 258 259 261 260 266 272 272 268 270 277 285 290 288 288 293 297 295 301 304 303 295 284 278 273 275 278 283 288 290 290 291 289 291 295
267 267 261 247 237 243 249 248 250 254 257 257 258 261 269 275 281 267 264 271 281 287 288 281 283 300 302 302 304 303 295 284 277 272 272 278 283 286 286 287 288 288 286 284
268 270 270 265 237 239 248 243 245 251 259 262 264 267 270 276 282 277 272 277 279 278 279 280 280 293 300 298 297 295 291 286 282 279 279 279 281 282 282 283 283 281 278 276
272 267 264 269 274 256 234 234 247 253 256 260 262 266 267 266 269 272 276 278 272 267 270 279 284 292 298 298 293 288 289 291 293 291 289 287 283 282 281 279 276 272 269 268
269 273 269 262 264 270 250 230 243 265 265 263 267 274 268 255 263 264 265 265 274 273 272 278 285 290 295 294 287 286 293 298 300 298 295 290 287 282 277 274 271 270 269 270
257 271 271 255 258 297 266 236 281 289 274 269 269 264 252 255 260 259 259 264 275 275 277 285 287 286 290 292 288 288 293 297 299 300 297 292 288 280 272 273 274 272 267 264
251 261 270 261 253 268 281 283 292 298 296 283 274 266 261 258 254 256 264 270 275 277 281 283 282 288 291 290 289 291 295 298 300 298 293 289 288 283 278 275 273 271 266 261
258 262 267 257 247 254 269 278 282 290 296 333 305 272 246 217 221 242 266 268 264 262 264 277 288 289 290 292 294 296 298 298 298 295 292 289 287 285 282 277 271 268 266 261
246 258 262 237 237 241 265 277 279 250 188 130 169 166 144 133 179 217 232 234 244 271 288 289 288 291 294 295 295 295 297 299 301 300 295 292 289 286 281 278 276 273 270 264
238 242 242 231 239 241 244 237 205 187 177 175 176 167 155 146 167 209 234 252 275 289 292 294 296 298 301 303 302 303 306 307 308 304 297 291 289 288 285 281 278 277 276 272
235 235 237 233 240 216 212 201 189 186 190 183 183 185 193 187 178 192 252 290 296 300 304 305 304 305 308 308 310 314 316 317 315 312 308 304 299 295 294 292 287 279 274 271
228 223 226 210 223 218 200 198 198 198 192 192 196 200 209 201 158 100 316 306 306 308 310 311 310 307 309 315 321 323 323 321 318 316 313 308 304 303 304 301 294 285 275 267
229 227 227 210 226 230 222 210 201 200 198 203 204 200 204 223 211 84 324 317 313 313 313 314 314 315 319 324 329 329 326 325 324 325 324 322 320 324 327 324 314 296 277 264
235 230 226 221 219 215 217 210 204 206 202 202 207 198 216 235 256 284 300 322 324 323 320 319 321 325 328 332 337 336 335 337 337 334 334 333 334 340 342 343 340 328 292 254
240 231 222 212 206 201 209 217 212 214 210 207 215 211 220 230 242 267 308 335 334 331 323 320 321 326 333 334 337 342 347 348 344 336 335 331 323 331 342 352 358 3 359 291